{"data":{"norad_id":53053,"intl_designator":"2022-077L","name":"STARLINK-4337","alt_names":[],"object_type":"PAYLOAD","status":"ACTIVE","operator":null,"country":"US","launch_date":"2022-07-11","launch_site_code":"AFWTR","launch_vehicle":null,"mission":null,"orbit_class":"UNKNOWN","rcs_meters":null,"size_class":null,"mass_kg":null,"dimensions":null,"purposes":["comms"],"wikipedia_slug":null,"has_3d_model":false,"image_url":null,"decayed_at":null,"tle_current":{"epoch":"2026-09-19T21:53:28.280832Z","epoch_age_seconds":120251,"freshness":"FRESH","line1":"1 53053U 22077L   26262.91213288  .00001435  00000+0  46793-4 0  9991","line2":"2 53053  97.2850  77.7872 0001536  90.6929 269.4490 15.33436145230203","mean_motion":15.33436145,"eccentricity":0.0001536,"inclination_deg":97.285,"raan_deg":77.7872,"arg_perigee_deg":90.6929,"mean_anomaly_deg":269.449,"bstar":4.6793e-5,"rev_number":23020,"period_min":93.906746928807,"perigee_km":464.51832753329,"apogee_km":466.6207141765,"semimajor_km":6843.7065208549,"source":"CELESTRAK","updated_at":"2026-09-20T09:00:40.151833Z"}}}